• In Belarus
  • List of Countries
  • For 7 days
  • Water Temperature
  • Satellite Maps
  • Weather Map
  • Weather Widgets
  • user-avatar
    Login

    Hourly Weather Garmisch-Partenkirchen

    Today, 18 March, Monday

    Time Temperature Precipitation Wind Pressure Humidity
    00:00 -1°C° 0.8 mm 2 mps 671 mmHg 94%
    01:00 -2°C° 0 mm 2 mps 671 mmHg 95%
    02:00 0°C° 0.6 mm 1 mps 672 mmHg 95%
    03:00 0°C° 0.6 mm 1 mps 672 mmHg 95%
    04:00 0°C° 0.6 mm 1 mps 672 mmHg 95%
    05:00 -1°C° 0.5 mm 1 mps 672 mmHg 95%
    06:00 -1°C° 0.5 mm 1 mps 673 mmHg 94%
    07:00 -3°C° 0 mm 2 mps 673 mmHg 93%
    08:00 -2°C° 0.5 mm 2 mps 673 mmHg 90%
    09:00 -1°C° 0.5 mm 2 mps 674 mmHg 88%
    10:00 -1°C° 0.5 mm 2 mps 674 mmHg 85%
    11:00 +1°C° 0.2 mm 2 mps 674 mmHg 83%
    12:00 +2°C° 0.2 mm 2 mps 674 mmHg 80%
    13:00 +1°C° 0 mm 3 mps 675 mmHg 77%
    14:00 +2°C° 0.1 mm 2 mps 675 mmHg 76%
    15:00 +2°C° 0.1 mm 2 mps 675 mmHg 75%
    16:00 +2°C° 0.1 mm 2 mps 675 mmHg 74%
    17:00 +1°C° 0 mm 1 mps 675 mmHg 79%
    18:00 -1°C° 0 mm 1 mps 676 mmHg 83%
    19:00 -2°C° 0 mm 1 mps 676 mmHg 88%
    20:00 -3°C° 0 mm 1 mps 676 mmHg 88%
    21:00 -3°C° 0 mm 1 mps 677 mmHg 87%
    22:00 -3°C° 0 mm 1 mps 677 mmHg 87%
    23:00 -6°C° 0 mm 2 mps 677 mmHg 86%

    Tomorrow, 19 March, Tuesday

    Time Temperature Precipitation Wind Pressure Humidity
    00:00 -6°C° 0 mm 2 mps 677 mmHg 86%
    01:00 -7°C° 0 mm 2 mps 677 mmHg 85%
    02:00 -7°C° 0 mm 2 mps 677 mmHg 86%
    03:00 -7°C° 0 mm 2 mps 677 mmHg 86%
    04:00 -6°C° 0 mm 1 mps 677 mmHg 86%
    05:00 -6°C° 0 mm 1 mps 678 mmHg 86%
    06:00 -6°C° 0 mm 1 mps 678 mmHg 86%
    07:00 -4°C° 0 mm 1 mps 678 mmHg 86%
    08:00 -2°C° 0 mm 1 mps 679 mmHg 83%
    09:00 +1°C° 0 mm 1 mps 679 mmHg 80%
    10:00 +2°C° 0 mm 0 mps 680 mmHg 76%
    11:00 +3°C° 0.1 mm 1 mps 680 mmHg 75%
    12:00 +4°C° 0.1 mm 1 mps 680 mmHg 74%
    13:00 +4°C° 0.1 mm 1 mps 680 mmHg 73%
    14:00 +4°C° 0.1 mm 1 mps 680 mmHg 75%
    15:00 +3°C° 0.1 mm 1 mps 680 mmHg 76%
    16:00 +3°C° 0.1 mm 1 mps 680 mmHg 78%
    17:00 +2°C° 0.1 mm 1 mps 680 mmHg 82%
    18:00 0°C° 0.1 mm 0 mps 680 mmHg 87%
    19:00 -2°C° 0.1 mm 0 mps 680 mmHg 91%
    20:00 -2°C° 0 mm 0 mps 681 mmHg 91%
    21:00 -2°C° 0 mm 0 mps 682 mmHg 91%
    22:00 -2°C° 0 mm 1 mps 682 mmHg 91%
    23:00 -2°C° 0 mm 1 mps 683 mmHg 91%

    Day after tomorrow, 20 March, Wednesday

    Time Temperature Precipitation Wind Pressure Humidity
    00:00 -3°C° 0 mm 1 mps 683 mmHg 92%
    01:00 -3°C° 0 mm 1 mps 683 mmHg 92%
    02:00 -4°C° 0 mm 1 mps 683 mmHg 91%
    03:00 -4°C° 0 mm 1 mps 683 mmHg 91%
    04:00 -4°C° 0 mm 1 mps 683 mmHg 91%
    05:00 -4°C° 0 mm 1 mps 683 mmHg 89%
    06:00 -4°C° 0 mm 1 mps 683 mmHg 88%
    07:00 -4°C° 0 mm 1 mps 683 mmHg 86%
    08:00 -2°C° 0 mm 1 mps 684 mmHg 81%
    09:00 +1°C° 0 mm 1 mps 684 mmHg 76%
    10:00 +3°C° 0 mm 1 mps 684 mmHg 71%
    11:00 +4°C° 0 mm 1 mps 684 mmHg 70%
    12:00 +5°C° 0 mm 1 mps 684 mmHg 70%
    13:00 +6°C° 0 mm 1 mps 684 mmHg 69%
    14:00 +6°C° 0 mm 1 mps 684 mmHg 71%
    15:00 +6°C° 0 mm 1 mps 684 mmHg 73%
    16:00 +6°C° 0 mm 1 mps 684 mmHg 75%
    17:00 +4°C° 0 mm 1 mps 684 mmHg 81%
    18:00 +2°C° 0 mm 1 mps 684 mmHg 87%
    19:00 0°C° 0 mm 1 mps 684 mmHg 94%
    20:00 -1°C° 0 mm 1 mps 684 mmHg 93%
    21:00 -1°C° 0 mm 1 mps 684 mmHg 92%
    22:00 -2°C° 0 mm 1 mps 685 mmHg 91%
    23:00 -2°C° 0 mm 1 mps 685 mmHg 88%

    21 March, Thursday

    Time Temperature Precipitation Wind Pressure Humidity
    00:00 -2°C° 0 mm 1 mps 685 mmHg 86%
    01:00 -2°C° 0 mm 1 mps 685 mmHg 83%
    02:00 -2°C° 0 mm 1 mps 684 mmHg 81%
    03:00 -2°C° 0 mm 1 mps 684 mmHg 79%
    04:00 -2°C° 0 mm 1 mps 684 mmHg 76%
    05:00 -2°C° 0 mm 1 mps 684 mmHg 74%
    06:00 -2°C° 0 mm 1 mps 684 mmHg 72%
    07:00 -1°C° 0 mm 1 mps 684 mmHg 70%
    08:00 +2°C° 0 mm 1 mps 684 mmHg 67%
    09:00 +4°C° 0 mm 1 mps 685 mmHg 64%
    10:00 +7°C° 0 mm 1 mps 685 mmHg 62%
    11:00 +8°C° 0 mm 1 mps 685 mmHg 61%
    12:00 +9°C° 0 mm 1 mps 685 mmHg 61%
    13:00 +11°C° 0 mm 1 mps 685 mmHg 61%
    14:00 +10°C° 0 mm 1 mps 684 mmHg 65%
    15:00 +10°C° 0 mm 1 mps 684 mmHg 69%
    16:00 +10°C° 0 mm 1 mps 683 mmHg 73%
    17:00 +8°C° 0 mm 1 mps 683 mmHg 79%
    18:00 +5°C° 0 mm 1 mps 683 mmHg 86%
    19:00 +3°C° 0 mm 1 mps 683 mmHg 92%
    20:00 +3°C° 0 mm 1 mps 683 mmHg 89%
    21:00 +3°C° 0 mm 1 mps 683 mmHg 87%
    22:00 +2°C° 0 mm 1 mps 683 mmHg 85%
    23:00 +2°C° 0 mm 1 mps 683 mmHg 83%

    22 March, Friday

    Time Temperature Precipitation Wind Pressure Humidity
    00:00 +2°C° 0 mm 1 mps 683 mmHg 81%
    01:00 +1°C° 0 mm 2 mps 683 mmHg 78%
    02:00 +1°C° 0 mm 2 mps 683 mmHg 77%
    03:00 +1°C° 0 mm 2 mps 683 mmHg 75%
    04:00 -1°C° 0 mm 2 mps 682 mmHg 73%
    05:00 +1°C° 0 mm 2 mps 682 mmHg 71%
    06:00 +1°C° 0 mm 2 mps 683 mmHg 70%
    07:00 +2°C° 0 mm 1 mps 683 mmHg 68%
    08:00 +5°C° 0 mm 1 mps 683 mmHg 65%
    09:00 +8°C° 0 mm 1 mps 684 mmHg 62%
    10:00 +10°C° 0 mm 0 mps 684 mmHg 58%
    11:00 +11°C° 0 mm 0 mps 684 mmHg 58%
    12:00 +13°C° 0 mm 1 mps 684 mmHg 58%
    13:00 +14°C° 0 mm 1 mps 684 mmHg 58%
    14:00 +13°C° 0 mm 1 mps 683 mmHg 62%
    15:00 +13°C° 0 mm 1 mps 683 mmHg 65%
    16:00 +13°C° 0 mm 1 mps 683 mmHg 69%
    17:00 +10°C° 0 mm 1 mps 682 mmHg 76%
    18:00 +8°C° 0 mm 1 mps 682 mmHg 84%
    19:00 +4°C° 0 mm 0 mps 682 mmHg 91%
    20:00 +5°C° 0 mm 1 mps 682 mmHg 90%
    21:00 +5°C° 0 mm 1 mps 682 mmHg 89%
    22:00 +3°C° 0 mm 2 mps 683 mmHg 88%
    23:00 +3°C° 0 mm 2 mps 682 mmHg 86%

    23 March, Saturday

    Time Temperature Precipitation Wind Pressure Humidity
    00:00 +3°C° 0 mm 2 mps 682 mmHg 84%
    01:00 +3°C° 0 mm 2 mps 682 mmHg 82%
    02:00 +3°C° 0 mm 2 mps 682 mmHg 80%
    03:00 +3°C° 0 mm 1 mps 682 mmHg 78%
    04:00 +3°C° 0 mm 1 mps 682 mmHg 76%
    05:00 +3°C° 0 mm 1 mps 682 mmHg 75%
    06:00 +3°C° 0 mm 2 mps 682 mmHg 73%
    07:00 +3°C° 0 mm 2 mps 682 mmHg 71%
    08:00 +7°C° 0 mm 1 mps 682 mmHg 66%
    09:00 +9°C° 0 mm 0 mps 683 mmHg 60%
    10:00 +12°C° 0 mm 0 mps 683 mmHg 55%
    11:00 +13°C° 0 mm 0 mps 683 mmHg 54%
    12:00 +14°C° 0 mm 0 mps 683 mmHg 53%
    13:00 +16°C° 0 mm 1 mps 683 mmHg 52%
    14:00 +16°C° 0 mm 1 mps 682 mmHg 55%
    15:00 +15°C° 0 mm 1 mps 682 mmHg 57%
    16:00 +15°C° 0 mm 1 mps 681 mmHg 60%
    17:00 +13°C° 0 mm 1 mps 681 mmHg 69%
    18:00 +9°C° 0 mm 0 mps 680 mmHg 78%
    19:00 +7°C° 0 mm 0 mps 680 mmHg 87%
    20:00 +7°C° 0 mm 1 mps 680 mmHg 86%
    21:00 +7°C° 0 mm 1 mps 681 mmHg 85%
    22:00 +5°C° 0 mm 2 mps 681 mmHg 84%
    23:00 +5°C° 0 mm 2 mps 681 mmHg 81%
    Show more